| time (UTC) | temp F | wind direction | speed MPH | gust MPH | rain 1hr in | rain 24hr in | rain mn in | humidity % | barometer mb |
| 20260507033231 | 40 | 304 | 1.0 | 2.0 | 0.00 | 0.00 | 0.00 | 90 | 1013.1 |
| 20260507032732 | 40 | 301 | 0.0 | 3.0 | 0.00 | 0.00 | 0.00 | 90 | 1013.0 |
| 20260507032231 | 40 | 295 | 0.0 | 3.0 | 0.00 | 0.00 | 0.00 | 89 | 1013.0 |
| 20260507031731 | 40 | 294 | 1.0 | 2.0 | 0.00 | 0.00 | 0.00 | 89 | 1013.0 |
| 20260507031231 | 41 | 328 | 0.0 | 0.0 | 0.00 | 0.00 | 0.00 | 89 | 1013.0 |
| 20260507030730 | 41 | 328 | 0.0 | 0.0 | 0.00 | 0.00 | 0.00 | 89 | 1013.0 |
| 20260507030232 | 41 | 328 | 0.0 | 0.0 | 0.00 | 0.00 | 0.00 | 89 | 1013.0 |
| 20260507025731 | 41 | 328 | 0.0 | 0.0 | 0.00 | 0.00 | 0.00 | 89 | 1013.0 |
| 20260507025232 | 41 | 328 | 0.0 | 0.0 | 0.00 | 0.00 | 0.00 | 89 | 1013.0 |
| 20260507024731 | 41 | 328 | 0.0 | 0.0 | 0.00 | 0.00 | 0.00 | 89 | 1013.0 |
| 20260507024234 | 41 | 328 | 0.0 | 0.0 | 0.00 | 0.00 | 0.00 | 89 | 1012.9 |
| 20260507023731 | 41 | 328 | 0.0 | 3.0 | 0.00 | 0.00 | 0.00 | 89 | 1013.0 |
| 20260507023225 | 41 | 328 | 0.0 | 3.0 | 0.00 | 0.00 | 0.00 | 89 | 1012.9 |
| 20260507022724 | 42 | 328 | 1.0 | 3.0 | 0.00 | 0.00 | 0.00 | 89 | 1012.9 |
| 20260507022221 | 42 | 304 | 1.0 | 3.0 | 0.00 | 0.00 | 0.00 | 89 | 1012.7 |
| 20260507021713 | 42 | 299 | 0.0 | 2.0 | 0.00 | 0.00 | 0.00 | 89 | 1012.7 |
| 20260507021215 | 42 | 276 | 0.0 | 0.0 | 0.00 | 0.00 | 0.00 | 89 | 1012.7 |
| 20260507020705 | 42 | 276 | 0.0 | 1.0 | 0.00 | 0.00 | 0.00 | 89 | 1012.6 |
| 20260507020204 | 42 | 276 | 0.0 | 2.0 | 0.00 | 0.00 | 0.00 | 89 | 1012.7 |
| 20260507015705 | 42 | 276 | 0.0 | 2.0 | 0.00 | 0.00 | 0.00 | 89 | 1012.8 |
| 20260507015216 | 42 | 276 | 0.0 | 3.0 | 0.00 | 0.00 | 0.00 | 89 | 1012.6 |
| 20260507014703 | 42 | 294 | 1.0 | 3.0 | 0.00 | 0.00 | 0.00 | 89 | 1012.7 |
| 20260507014202 | 42 | 320 | 1.0 | 3.0 | 0.00 | 0.00 | 0.00 | 89 | 1012.6 |
| 20260507013702 | 42 | 301 | 1.0 | 3.0 | 0.00 | 0.00 | 0.00 | 89 | 1012.6 |
| 20260507013202 | 42 | 286 | 1.0 | 3.0 | 0.00 | 0.00 | 0.00 | 89 | 1012.6 |
| 20260507012702 | 42 | 300 | 1.0 | 3.0 | 0.00 | 0.00 | 0.00 | 89 | 1012.6 |
| 20260507012202 | 43 | 308 | 0.0 | 3.0 | 0.00 | 0.00 | 0.00 | 89 | 1012.5 |
| 20260507011702 | 43 | 312 | 1.0 | 2.0 | 0.00 | 0.00 | 0.00 | 88 | 1012.4 |
| 20260507011203 | 43 | 314 | 0.0 | 3.0 | 0.00 | 0.00 | 0.00 | 88 | 1012.4 |
| 20260507010702 | 43 | 313 | 0.0 | 3.0 | 0.00 | 0.00 | 0.00 | 88 | 1012.4 |
| 20260507010203 | 43 | 326 | 1.0 | 4.0 | 0.00 | 0.00 | 0.00 | 89 | 1012.4 |
| 20260507005703 | 43 | 327 | 1.0 | 5.0 | 0.00 | 0.00 | 0.00 | 88 | 1012.4 |
| 20260507005201 | 43 | 308 | 2.0 | 5.0 | 0.00 | 0.00 | 0.00 | 88 | 1012.4 |
| 20260507004701 | 43 | 314 | 0.0 | 3.0 | 0.00 | 0.00 | 0.00 | 88 | 1012.4 |
| 20260507004202 | 43 | 309 | 1.0 | 3.0 | 0.00 | 0.00 | 0.00 | 88 | 1012.4 |
| 20260507003702 | 43 | 329 | 1.0 | 4.0 | 0.00 | 0.00 | 0.00 | 88 | 1012.3 |
| 20260507003202 | 43 | 275 | 1.0 | 4.0 | 0.00 | 0.00 | 0.00 | 88 | 1012.4 |
| 20260507002705 | 44 | 308 | 1.0 | 6.0 | 0.00 | 0.00 | 0.00 | 88 | 1012.3 |
| 20260507002202 | 44 | 321 | 1.0 | 6.0 | 0.00 | 0.00 | 0.00 | 88 | 1012.4 |
| 20260507001702 | 44 | 341 | 2.0 | 6.0 | 0.00 | 0.00 | 0.00 | 88 | 1012.2 |
| 20260507001202 | 44 | 321 | 1.0 | 6.0 | 0.00 | 0.00 | 0.00 | 88 | 1012.2 |
| 20260507000702 | 44 | 331 | 1.0 | 4.0 | 0.00 | 0.00 | 0.00 | 88 | 1012.2 |
| 20260507000204 | 44 | 317 | 1.0 | 4.0 | 0.00 | 0.00 | 0.00 | 87 | 1012.3 |
| 20260506235703 | 44 | 327 | 1.0 | 4.0 | 0.00 | 0.00 | 0.00 | 87 | 1012.4 |
| 20260506235202 | 44 | 336 | 2.0 | 4.0 | 0.00 | 0.00 | 0.00 | 87 | 1012.4 |
| 20260506234702 | 44 | 313 | 1.0 | 4.0 | 0.00 | 0.00 | 0.00 | 87 | 1012.4 |
| 20260506234202 | 44 | 312 | 1.0 | 4.0 | 0.00 | 0.00 | 0.00 | 87 | 1012.3 |
| 20260506233702 | 44 | 289 | 2.0 | 4.0 | 0.00 | 0.00 | 0.00 | 86 | 1012.4 |
| 20260506233201 | 45 | 279 | 1.0 | 4.0 | 0.00 | 0.00 | 0.00 | 86 | 1012.3 |
| 20260506232702 | 45 | 327 | 2.0 | 4.0 | 0.00 | 0.00 | 0.00 | 86 | 1012.2 |
| 20260506232200 | 45 | 351 | 1.0 | 4.0 | 0.00 | 0.00 | 0.00 | 86 | 1012.3 |
| 20260506231659 | 45 | 323 | 1.0 | 4.0 | 0.00 | 0.00 | 0.00 | 86 | 1012.2 |
| 20260506231157 | 45 | 319 | 1.0 | 6.0 | 0.00 | 0.00 | 0.00 | 86 | 1012.2 |
| 20260506230656 | 45 | 303 | 2.0 | 6.0 | 0.00 | 0.00 | 0.00 | 86 | 1012.2 |
| 20260506230154 | 45 | 323 | 2.0 | 6.0 | 0.00 | 0.00 | 0.00 | 85 | 1012.3 |
| 20260506225651 | 46 | 330 | 2.0 | 6.0 | 0.00 | 0.00 | 0.00 | 85 | 1012.2 |
| 20260506225150 | 46 | 349 | 2.0 | 4.0 | 0.00 | 0.00 | 0.00 | 85 | 1012.2 |
| 20260506224649 | 46 | 322 | 1.0 | 6.0 | 0.00 | 0.00 | 0.00 | 84 | 1012.1 |
| 20260506224145 | 46 | 323 | 1.0 | 6.0 | 0.00 | 0.00 | 0.00 | 84 | 1012.1 |
| 20260506223646 | 46 | 12 | 2.0 | 5.0 | 0.00 | 0.00 | 0.00 | 84 | 1012.2 |
| 20260506223143 | 46 | 344 | 1.0 | 4.0 | 0.00 | 0.00 | 0.00 | 84 | 1012.1 |
| 20260506222641 | 47 | 326 | 1.0 | 3.0 | 0.00 | 0.00 | 0.00 | 83 | 1012.2 |
| 20260506222141 | 47 | 345 | 2.0 | 4.0 | 0.00 | 0.00 | 0.00 | 83 | 1012.1 |
| 20260506221639 | 47 | 344 | 1.0 | 4.0 | 0.00 | 0.00 | 0.00 | 83 | 1012.1 |
| 20260506221138 | 47 | 351 | 2.0 | 4.0 | 0.00 | 0.00 | 0.00 | 83 | 1012.0 |
| 20260506220636 | 47 | 345 | 1.0 | 3.0 | 0.00 | 0.00 | 0.00 | 82 | 1012.1 |
| 20260506220135 | 48 | 315 | 1.0 | 4.0 | 0.00 | 0.00 | 0.00 | 82 | 1011.9 |
| 20260506215633 | 48 | 355 | 1.0 | 4.0 | 0.00 | 0.00 | 0.00 | 82 | 1011.9 |
| 20260506215132 | 48 | 312 | 1.0 | 3.0 | 0.00 | 0.00 | 0.00 | 82 | 1011.9 |
| 20260506214631 | 48 | 318 | 1.0 | 3.0 | 0.00 | 0.00 | 0.00 | 82 | 1011.8 |
| 20260506214131 | 48 | 356 | 2.0 | 4.0 | 0.00 | 0.00 | 0.00 | 82 | 1011.8 |
| 20260506213631 | 49 | 348 | 0.0 | 8.0 | 0.00 | 0.00 | 0.00 | 82 | 1011.7 |
| 20260506213131 | 49 | 17 | 3.0 | 8.0 | 0.00 | 0.00 | 0.00 | 81 | 1011.6 |
| 20260506212631 | 49 | 347 | 4.0 | 9.0 | 0.00 | 0.00 | 0.00 | 81 | 1011.5 |
| 20260506212131 | 49 | 23 | 4.0 | 9.0 | 0.00 | 0.00 | 0.00 | 81 | 1011.5 |
| 20260506211631 | 49 | 307 | 4.0 | 9.0 | 0.00 | 0.00 | 0.00 | 81 | 1011.3 |
| 20260506211131 | 49 | 350 | 5.0 | 9.0 | 0.00 | 0.00 | 0.00 | 81 | 1011.2 |
| 20260506210631 | 49 | 16 | 4.0 | 10.0 | 0.00 | 0.00 | 0.00 | 80 | 1011.3 |
| 20260506210131 | 50 | 337 | 5.0 | 12.0 | 0.00 | 0.00 | 0.00 | 81 | 1011.3 |
| 20260506205631 | 50 | 332 | 6.0 | 12.0 | 0.00 | 0.00 | 0.00 | 81 | 1011.2 |
| 20260506205130 | 50 | 350 | 5.0 | 10.0 | 0.00 | 0.00 | 0.00 | 81 | 1011.3 |
| 20260506204631 | 50 | 18 | 6.0 | 10.0 | 0.00 | 0.00 | 0.00 | 81 | 1011.2 |
| 20260506204132 | 50 | 42 | 5.0 | 9.0 | 0.00 | 0.00 | 0.00 | 81 | 1011.3 |
| 20260506203631 | 51 | 344 | 4.0 | 9.0 | 0.00 | 0.00 | 0.00 | 81 | 1011.2 |
| 20260506203130 | 51 | 353 | 3.0 | 7.0 | 0.00 | 0.00 | 0.00 | 82 | 1011.2 |
| 20260506202629 | 51 | 331 | 2.0 | 6.0 | 0.00 | 0.00 | 0.00 | 82 | 1011.2 |
| 20260506202129 | 51 | 314 | 2.0 | 6.0 | 0.00 | 0.00 | 0.00 | 81 | 1011.1 |
| 20260506201627 | 51 | 343 | 2.0 | 4.0 | 0.00 | 0.00 | 0.00 | 81 | 1011.1 |
| 20260506201127 | 51 | 314 | 1.0 | 3.0 | 0.00 | 0.00 | 0.00 | 81 | 1011.0 |
| 20260506200627 | 51 | 294 | 0.0 | 2.0 | 0.00 | 0.00 | 0.00 | 80 | 1011.1 |
| 20260506200121 | 51 | 314 | 0.0 | 2.0 | 0.00 | 0.00 | 0.00 | 80 | 1011.0 |
| 20260506195621 | 51 | 314 | 1.0 | 2.0 | 0.00 | 0.00 | 0.00 | 80 | 1011.0 |
| 20260506195118 | 51 | 314 | 0.0 | 2.0 | 0.00 | 0.00 | 0.00 | 79 | 1011.0 |
| 20260506194618 | 51 | 314 | 0.0 | 2.0 | 0.00 | 0.00 | 0.00 | 79 | 1010.9 |
| 20260506194116 | 51 | 314 | 0.0 | 1.0 | 0.00 | 0.00 | 0.00 | 79 | 1010.9 |
| 20260506193614 | 51 | 314 | 0.0 | 1.0 | 0.00 | 0.00 | 0.00 | 79 | 1010.8 |
| 20260506193108 | 51 | 314 | 0.0 | 1.0 | 0.00 | 0.00 | 0.00 | 78 | 1010.8 |
| 20260506192608 | 51 | 314 | 0.0 | 0.0 | 0.00 | 0.00 | 0.00 | 78 | 1010.7 |
| 20260506192105 | 52 | 314 | 0.0 | 0.0 | 0.00 | 0.00 | 0.00 | 77 | 1010.6 |
| 20260506191603 | 52 | 314 | 0.0 | 0.0 | 0.00 | 0.00 | 0.00 | 77 | 1010.6 |
| 20260506191103 | 52 | 314 | 0.0 | 0.0 | 0.00 | 0.00 | 0.00 | 77 | 1010.5 |
| 20260506190602 | 52 | 314 | 0.0 | 0.0 | 0.00 | 0.00 | 0.00 | 77 | 1010.4 |
| 20260506185602 | 52 | 314 | 0.0 | 0.0 | 0.00 | 0.00 | 0.00 | 77 | 1010.3 |
| 20260506185102 | 52 | 314 | 0.0 | 0.0 | 0.00 | 0.00 | 0.00 | 77 | 1010.3 |
| 20260506184602 | 52 | 314 | 0.0 | 0.0 | 0.00 | 0.00 | 0.00 | 77 | 1010.4 |
| 20260506184103 | 52 | 314 | 0.0 | 0.0 | 0.00 | 0.00 | 0.00 | 77 | 1010.4 |
| 20260506183602 | 52 | 314 | 0.0 | 1.0 | 0.00 | 0.00 | 0.00 | 76 | 1010.3 |
| 20260506183104 | 52 | 314 | 0.0 | 1.0 | 0.00 | 0.00 | 0.00 | 76 | 1010.3 |
| 20260506182603 | 53 | 314 | 0.0 | 2.0 | 0.00 | 0.00 | 0.00 | 76 | 1010.2 |
| 20260506182102 | 53 | 314 | 0.0 | 2.0 | 0.00 | 0.00 | 0.00 | 76 | 1010.2 |
| 20260506181601 | 53 | 314 | 0.0 | 2.0 | 0.00 | 0.00 | 0.00 | 75 | 1010.1 |
| 20260506181102 | 53 | 314 | 0.0 | 2.0 | 0.00 | 0.00 | 0.00 | 75 | 1010.0 |
| 20260506180559 | 53 | 335 | 0.0 | 3.0 | 0.00 | 0.00 | 0.00 | 74 | 1010.0 |
| 20260506180053 | 53 | 312 | 1.0 | 3.0 | 0.00 | 0.00 | 0.00 | 74 | 1009.9 |
| 20260506175551 | 53 | 343 | 1.0 | 3.0 | 0.00 | 0.00 | 0.00 | 73 | 1009.9 |
| 20260506175046 | 53 | 335 | 1.0 | 3.0 | 0.00 | 0.00 | 0.00 | 73 | 1009.7 |
| 20260506174545 | 53 | 349 | 1.0 | 3.0 | 0.00 | 0.00 | 0.00 | 73 | 1009.7 |
| 20260506174042 | 53 | 347 | 2.0 | 3.0 | 0.00 | 0.00 | 0.00 | 73 | 1009.6 |
| 20260506173540 | 53 | 3 | 0.0 | 3.0 | 0.00 | 0.00 | 0.00 | 72 | 1009.6 |
| 20260506173038 | 53 | 349 | 2.0 | 3.0 | 0.00 | 0.00 | 0.00 | 72 | 1009.5 |
| 20260506172535 | 53 | 17 | 1.0 | 4.0 | 0.00 | 0.00 | 0.00 | 72 | 1009.4 |
| 20260506172032 | 53 | 349 | 2.0 | 4.0 | 0.00 | 0.00 | 0.00 | 72 | 1009.5 |
| 20260506171531 | 53 | 348 | 2.0 | 4.0 | 0.00 | 0.00 | 0.00 | 72 | 1009.5 |
| 20260506171031 | 53 | 359 | 2.0 | 4.0 | 0.00 | 0.00 | 0.00 | 72 | 1009.5 |
| 20260506170531 | 53 | 2 | 2.0 | 5.0 | 0.00 | 0.00 | 0.00 | 72 | 1009.4 |
| 20260506170032 | 53 | 24 | 2.0 | 5.0 | 0.00 | 0.00 | 0.00 | 71 | 1009.3 |
| 20260506165529 | 53 | 341 | 2.0 | 7.0 | 0.00 | 0.00 | 0.00 | 71 | 1009.3 |
| 20260506165029 | 53 | 55 | 2.0 | 7.0 | 0.00 | 0.00 | 0.00 | 70 | 1009.3 |
| 20260506164523 | 53 | 26 | 1.0 | 5.0 | 0.00 | 0.00 | 0.00 | 70 | 1009.4 |
| 20260506164021 | 53 | 10 | 1.0 | 5.0 | 0.00 | 0.00 | 0.00 | 70 | 1009.4 |
| 20260506163523 | 53 | 0 | 1.0 | 6.0 | 0.00 | 0.00 | 0.00 | 70 | 1009.5 |
| 20260506163020 | 53 | 354 | 1.0 | 9.0 | 0.00 | 0.00 | 0.00 | 70 | 1009.5 |
| 20260506162518 | 53 | 79 | 2.0 | 9.0 | 0.00 | 0.00 | 0.00 | 70 | 1009.4 |
| 20260506162017 | 53 | 347 | 2.0 | 7.0 | 0.00 | 0.00 | 0.00 | 70 | 1009.3 |
| 20260506161516 | 53 | 4 | 2.0 | 5.0 | 0.00 | 0.00 | 0.00 | 70 | 1009.5 |
| 20260506161014 | 53 | 2 | 2.0 | 7.0 | 0.00 | 0.00 | 0.00 | 70 | 1009.5 |
| 20260506160514 | 53 | 58 | 2.0 | 8.0 | 0.00 | 0.00 | 0.00 | 70 | 1009.3 |
| 20260506160016 | 53 | 27 | 4.0 | 8.0 | 0.00 | 0.00 | 0.00 | 70 | 1009.4 |
| 20260506155512 | 53 | 41 | 3.0 | 6.0 | 0.00 | 0.00 | 0.00 | 70 | 1009.4 |
| 20260506155009 | 53 | 42 | 3.0 | 7.0 | 0.00 | 0.00 | 0.00 | 70 | 1009.4 |
| 20260506154510 | 53 | 28 | 3.0 | 7.0 | 0.00 | 0.00 | 0.00 | 71 | 1009.3 |
| 20260506154007 | 53 | 2 | 1.0 | 5.0 | 0.00 | 0.00 | 0.00 | 71 | 1009.5 |
| 20260506153507 | 53 | 41 | 2.0 | 5.0 | 0.00 | 0.00 | 0.00 | 70 | 1009.3 |
| 20260506153005 | 53 | 39 | 1.0 | 6.0 | 0.00 | 0.00 | 0.00 | 70 | 1009.3 |
| 20260506152504 | 53 | 50 | 4.0 | 6.0 | 0.00 | 0.00 | 0.00 | 70 | 1009.3 |
| 20260506152003 | 53 | 81 | 2.0 | 5.0 | 0.00 | 0.00 | 0.00 | 71 | 1009.2 |
| 20260506151504 | 53 | 20 | 1.0 | 8.0 | 0.00 | 0.00 | 0.00 | 70 | 1009.2 |
| 20260506150957 | 53 | 78 | 3.0 | 9.0 | 0.00 | 0.00 | 0.00 | 70 | 1009.2 |
| 20260506150457 | 53 | 323 | 4.0 | 9.0 | 0.00 | 0.00 | 0.00 | 69 | 1009.1 |
| 20260506145953 | 53 | 347 | 2.0 | 7.0 | 0.00 | 0.00 | 0.00 | 70 | 1009.1 |
| 20260506145450 | 53 | 2 | 3.0 | 7.0 | 0.00 | 0.00 | 0.00 | 70 | 1009.1 |
| 20260506144951 | 53 | 25 | 3.0 | 10.0 | 0.00 | 0.00 | 0.00 | 70 | 1009.2 |
| 20260506144447 | 53 | 49 | 5.0 | 10.0 | 0.00 | 0.00 | 0.00 | 70 | 1009.1 |
| 20260506143945 | 53 | 34 | 3.0 | 7.0 | 0.00 | 0.00 | 0.00 | 71 | 1009.1 |
| 20260506143442 | 53 | 64 | 3.0 | 7.0 | 0.00 | 0.00 | 0.00 | 71 | 1009.2 |
| 20260506142941 | 53 | 26 | 3.0 | 7.0 | 0.00 | 0.00 | 0.00 | 70 | 1009.1 |
| 20260506142440 | 53 | 345 | 3.0 | 10.0 | 0.00 | 0.00 | 0.00 | 70 | 1009.1 |
| 20260506141937 | 53 | 69 | 3.0 | 10.0 | 0.00 | 0.00 | 0.00 | 70 | 1009.1 |
| 20260506141436 | 53 | 52 | 2.0 | 10.0 | 0.00 | 0.00 | 0.00 | 70 | 1009.1 |
| 20260506140933 | 53 | 11 | 4.0 | 13.0 | 0.00 | 0.00 | 0.00 | 69 | 1009.0 |
| 20260506140433 | 53 | 8 | 6.0 | 18.0 | 0.00 | 0.00 | 0.00 | 69 | 1009.0 |
| 20260506135932 | 53 | 8 | 6.0 | 18.0 | 0.00 | 0.00 | 0.00 | 69 | 1008.9 |
| 20260506135435 | 53 | 23 | 7.0 | 14.0 | 0.00 | 0.00 | 0.00 | 71 | 1009.1 |
| 20260506134931 | 53 | 357 | 2.0 | 13.0 | 0.00 | 0.00 | 0.00 | 72 | 1009.0 |
| 20260506134430 | 53 | 6 | 6.0 | 18.0 | 0.00 | 0.00 | 0.00 | 72 | 1009.0 |
| 20260506133927 | 53 | 345 | 10.0 | 18.0 | 0.00 | 0.00 | 0.00 | 72 | 1009.0 |
| 20260506133426 | 53 | 34 | 8.0 | 18.0 | 0.00 | 0.00 | 0.00 | 73 | 1009.0 |
| 20260506132925 | 53 | 16 | 8.0 | 18.0 | 0.00 | 0.00 | 0.00 | 74 | 1009.0 |
| 20260506132423 | 53 | 40 | 6.0 | 17.0 | 0.00 | 0.00 | 0.00 | 75 | 1008.8 |
| 20260506131920 | 53 | 6 | 9.0 | 18.0 | 0.00 | 0.00 | 0.00 | 75 | 1008.8 |
| 20260506131418 | 52 | 12 | 10.0 | 18.0 | 0.00 | 0.00 | 0.00 | 75 | 1008.9 |
| 20260506130919 | 52 | 64 | 10.0 | 18.0 | 0.00 | 0.00 | 0.00 | 75 | 1009.0 |
| 20260506130415 | 52 | 74 | 8.0 | 19.0 | 0.00 | 0.00 | 0.00 | 76 | 1008.9 |
| 20260506125916 | 52 | 43 | 11.0 | 19.0 | 0.00 | 0.00 | 0.00 | 75 | 1008.8 |
| 20260506125413 | 52 | 66 | 9.0 | 17.0 | 0.00 | 0.00 | 0.00 | 75 | 1008.8 |
| 20260506124911 | 52 | 350 | 8.0 | 18.0 | 0.00 | 0.00 | 0.00 | 75 | 1008.9 |
| 20260506124407 | 52 | 22 | 10.0 | 18.0 | 0.00 | 0.00 | 0.00 | 75 | 1008.8 |
| 20260506123906 | 52 | 25 | 10.0 | 16.0 | 0.00 | 0.00 | 0.00 | 74 | 1008.8 |
| 20260506123404 | 52 | 4 | 8.0 | 16.0 | 0.00 | 0.00 | 0.00 | 74 | 1008.8 |
| 20260506122904 | 52 | 15 | 6.0 | 16.0 | 0.00 | 0.00 | 0.00 | 74 | 1008.7 |
| 20260506122402 | 52 | 6 | 11.0 | 16.0 | 0.00 | 0.00 | 0.00 | 72 | 1008.7 |
| 20260506121903 | 52 | 37 | 9.0 | 16.0 | 0.00 | 0.00 | 0.00 | 72 | 1008.6 |
| 20260506121403 | 52 | 357 | 7.0 | 15.0 | 0.00 | 0.00 | 0.00 | 72 | 1008.6 |
| 20260506120902 | 52 | 18 | 5.0 | 14.0 | 0.00 | 0.00 | 0.00 | 71 | 1008.5 |
| 20260506120357 | 52 | 35 | 6.0 | 16.0 | 0.00 | 0.00 | 0.00 | 70 | 1008.5 |
| 20260506115858 | 52 | 357 | 9.0 | 17.0 | 0.00 | 0.00 | 0.00 | 70 | 1008.4 |
| 20260506115357 | 53 | 343 | 9.0 | 17.0 | 0.00 | 0.00 | 0.00 | 70 | 1008.3 |
| 20260506114859 | 53 | 37 | 5.0 | 14.0 | 0.00 | 0.00 | 0.00 | 70 | 1008.3 |
| 20260506114357 | 53 | 0 | 8.0 | 19.0 | 0.00 | 0.00 | 0.00 | 70 | 1008.4 |
| 20260506113854 | 53 | 7 | 7.0 | 19.0 | 0.00 | 0.00 | 0.00 | 70 | 1008.5 |
| 20260506113352 | 53 | 1 | 8.0 | 17.0 | 0.00 | 0.00 | 0.00 | 69 | 1008.5 |
| 20260506112850 | 53 | 5 | 11.0 | 16.0 | 0.00 | 0.00 | 0.00 | 70 | 1008.5 |
| 20260506112346 | 53 | 358 | 9.0 | 13.0 | 0.00 | 0.00 | 0.00 | 72 | 1008.6 |
| 20260506111846 | 53 | 4 | 3.0 | 11.0 | 0.00 | 0.00 | 0.00 | 75 | 1008.5 |
| 20260506111344 | 53 | 356 | 5.0 | 11.0 | 0.00 | 0.00 | 0.00 | 74 | 1008.5 |
| 20260506110841 | 52 | 358 | 5.0 | 13.0 | 0.00 | 0.00 | 0.00 | 74 | 1008.5 |
| 20260506110339 | 52 | 20 | 9.0 | 13.0 | 0.00 | 0.00 | 0.00 | 72 | 1008.5 |
| 20260506105835 | 52 | 316 | 7.0 | 14.0 | 0.00 | 0.00 | 0.00 | 74 | 1008.6 |
| 20260506105334 | 52 | 349 | 7.0 | 16.0 | 0.00 | 0.00 | 0.00 | 73 | 1008.6 |
| 20260506104831 | 52 | 19 | 8.0 | 16.0 | 0.00 | 0.00 | 0.00 | 73 | 1008.6 |
| 20260506104332 | 52 | 7 | 9.0 | 15.0 | 0.00 | 0.00 | 0.00 | 73 | 1008.5 |
| 20260506103831 | 52 | 25 | 5.0 | 17.0 | 0.00 | 0.00 | 0.00 | 74 | 1008.5 |
| 20260506103332 | 52 | 26 | 10.0 | 17.0 | 0.00 | 0.00 | 0.00 | 73 | 1008.4 |
| 20260506102831 | 52 | 339 | 9.0 | 13.0 | 0.00 | 0.00 | 0.00 | 74 | 1008.3 |
| 20260506102332 | 52 | 4 | 6.0 | 16.0 | 0.00 | 0.00 | 0.00 | 75 | 1008.4 |
| 20260506101831 | 52 | 353 | 8.0 | 16.0 | 0.00 | 0.00 | 0.00 | 76 | 1008.4 |
| 20260506101332 | 52 | 337 | 6.0 | 13.0 | 0.00 | 0.00 | 0.00 | 77 | 1008.3 |
| 20260506100832 | 52 | 352 | 7.0 | 12.0 | 0.00 | 0.00 | 0.00 | 77 | 1008.3 |
| 20260506100332 | 52 | 20 | 6.0 | 17.0 | 0.00 | 0.00 | 0.00 | 76 | 1008.2 |
| 20260506095831 | 52 | 13 | 7.0 | 17.0 | 0.00 | 0.00 | 0.00 | 75 | 1008.2 |
| 20260506095332 | 52 | 356 | 5.0 | 15.0 | 0.00 | 0.00 | 0.00 | 76 | 1008.2 |
| 20260506094832 | 52 | 13 | 6.0 | 15.0 | 0.00 | 0.00 | 0.00 | 74 | 1008.2 |
| 20260506094331 | 52 | 2 | 9.0 | 14.0 | 0.00 | 0.00 | 0.00 | 74 | 1008.1 |
| 20260506093832 | 52 | 9 | 7.0 | 14.0 | 0.00 | 0.00 | 0.00 | 74 | 1008.2 |
| 20260506093331 | 52 | 12 | 6.0 | 14.0 | 0.00 | 0.00 | 0.00 | 74 | 1008.1 |
| 20260506092833 | 52 | 335 | 9.0 | 13.0 | 0.00 | 0.00 | 0.00 | 75 | 1008.0 |
| 20260506092333 | 52 | 2 | 6.0 | 13.0 | 0.00 | 0.00 | 0.00 | 76 | 1008.2 |
| 20260506091832 | 52 | 316 | 8.0 | 13.0 | 0.00 | 0.00 | 0.00 | 77 | 1008.1 |
| 20260506091331 | 52 | 7 | 6.0 | 13.0 | 0.00 | 0.00 | 0.00 | 76 | 1008.0 |
| 20260506090830 | 52 | 23 | 8.0 | 13.0 | 0.00 | 0.00 | 0.00 | 77 | 1008.1 |
| 20260506090331 | 51 | 19 | 7.0 | 12.0 | 0.00 | 0.00 | 0.00 | 76 | 1008.0 |
| 20260506085831 | 51 | 356 | 6.0 | 13.0 | 0.00 | 0.00 | 0.00 | 76 | 1007.9 |
| 20260506085331 | 51 | 0 | 6.0 | 13.0 | 0.00 | 0.00 | 0.00 | 77 | 1007.7 |
| 20260506084831 | 51 | 18 | 6.0 | 12.0 | 0.00 | 0.00 | 0.00 | 77 | 1007.6 |
| 20260506084332 | 51 | 10 | 4.0 | 13.0 | 0.00 | 0.00 | 0.00 | 76 | 1007.7 |
| 20260506083831 | 51 | 356 | 6.0 | 13.0 | 0.00 | 0.00 | 0.00 | 77 | 1007.6 |
| 20260506083332 | 51 | 4 | 7.0 | 12.0 | 0.00 | 0.00 | 0.00 | 77 | 1007.7 |
| 20260506082831 | 51 | 17 | 7.0 | 11.0 | 0.00 | 0.00 | 0.00 | 77 | 1007.6 |
| 20260506082331 | 51 | 8 | 5.0 | 11.0 | 0.00 | 0.00 | 0.00 | 78 | 1007.7 |
| 20260506081832 | 51 | 310 | 8.0 | 11.0 | 0.00 | 0.00 | 0.00 | 78 | 1007.7 |
| 20260506081331 | 51 | 7 | 7.0 | 11.0 | 0.00 | 0.00 | 0.00 | 79 | 1007.6 |
| 20260506080831 | 51 | 12 | 6.0 | 11.0 | 0.00 | 0.00 | 0.00 | 79 | 1007.6 |
| 20260506080331 | 51 | 3 | 4.0 | 11.0 | 0.00 | 0.00 | 0.00 | 79 | 1007.6 |
| 20260506073331 | 50 | 356 | 4.0 | 12.0 | 0.00 | 0.00 | 0.00 | 74 | 1007.5 |
| 20260506072831 | 50 | 10 | 5.0 | 12.0 | 0.00 | 0.00 | 0.00 | 73 | 1007.5 |
| 20260506072331 | 50 | 337 | 4.0 | 10.0 | 0.00 | 0.00 | 0.00 | 74 | 1007.5 |
| 20260506071831 | 50 | 347 | 6.0 | 17.0 | 0.00 | 0.00 | 0.00 | 75 | 1007.4 |
| 20260506071332 | 50 | 66 | 7.0 | 18.0 | 0.00 | 0.00 | 0.00 | 76 | 1007.4 |
| 20260506070830 | 50 | 0 | 7.0 | 18.0 | 0.00 | 0.00 | 0.00 | 80 | 1007.5 |
| 20260506070329 | 50 | 27 | 6.0 | 12.0 | 0.00 | 0.00 | 0.00 | 82 | 1007.5 |
| 20260506062316 | 49 | 1 | 6.0 | 13.0 | 0.00 | 0.00 | 0.00 | 87 | 1007.2 |
| 20260506061815 | 49 | 349 | 6.0 | 12.0 | 0.00 | 0.00 | 0.00 | 87 | 1007.1 |
| 20260506061305 | 49 | 6 | 6.0 | 12.0 | 0.00 | 0.00 | 0.00 | 88 | 1007.2 |
| 20260506060803 | 49 | 352 | 6.0 | 11.0 | 0.00 | 0.00 | 0.00 | 88 | 1007.0 |
| 20260506060305 | 49 | 347 | 6.0 | 11.0 | 0.00 | 0.00 | 0.00 | 88 | 1007.1 |
| 20260506051302 | 49 | 355 | 6.0 | 11.0 | 0.00 | 0.00 | 0.00 | 89 | 1006.9 |
| 20260506050259 | 49 | 320 | 5.0 | 9.0 | 0.00 | 0.00 | 0.00 | 89 | 1006.8 |
| 20260506044756 | 49 | 355 | 6.0 | 11.0 | 0.00 | 0.00 | 0.00 | 89 | 1006.8 |
| 20260506044255 | 49 | 340 | 4.0 | 9.0 | 0.00 | 0.00 | 0.00 | 89 | 1006.8 |
| 20260506043752 | 49 | 308 | 3.0 | 7.0 | 0.00 | 0.00 | 0.00 | 89 | 1006.8 |
| 20260506043252 | 49 | 351 | 3.0 | 8.0 | 0.00 | 0.00 | 0.00 | 89 | 1006.8 |
| 20260506042749 | 49 | 320 | 4.0 | 8.0 | 0.00 | 0.00 | 0.00 | 88 | 1006.8 |
| 20260506042247 | 49 | 316 | 4.0 | 8.0 | 0.00 | 0.00 | 0.00 | 88 | 1006.7 |
| 20260506041746 | 49 | 324 | 3.0 | 10.0 | 0.00 | 0.00 | 0.00 | 88 | 1006.7 |
| 20260506041244 | 49 | 339 | 4.0 | 8.0 | 0.00 | 0.00 | 0.00 | 88 | 1006.8 |
| 20260506040739 | 49 | 339 | 3.0 | 7.0 | 0.00 | 0.00 | 0.00 | 88 | 1006.8 |
| 20260506040240 | 49 | 343 | 3.0 | 7.0 | 0.00 | 0.00 | 0.00 | 88 | 1006.8 |
| 20260506035737 | 49 | 336 | 3.0 | 9.0 | 0.00 | 0.00 | 0.00 | 88 | 1006.9 |
| 20260506035236 | 49 | 341 | 5.0 | 9.0 | 0.00 | 0.00 | 0.00 | 88 | 1007.0 |
| 20260506034728 | 49 | 347 | 5.0 | 9.0 | 0.00 | 0.00 | 0.00 | 88 | 1006.9 |
| 20260506034228 | 49 | 322 | 4.0 | 9.0 | 0.00 | 0.00 | 0.00 | 88 | 1007.0 |
| 20260506033724 | 49 | 23 | 3.0 | 9.0 | 0.00 | 0.00 | 0.00 | 88 | 1007.0 |